Skip to content
You are here: Gozo Weather
Gozo Weather Station for the very latest live weather conditions from Gozo and Malta
 
 TIME   TEMPERATURE   WINDSPEED   DIRECTION   HUMIDITY   BAROMETER   RAINFALL 
4:55 14.1°C (57.4°F) 16.7 kmh (10.4 mph) N 69% 1014.0hPa (29.94 inHg) 0.0mm (0.00 in.)
3:55 14.0°C (57.2 °F) 1.9 kmh (1.2 mph) WNW 69% 1014.0hPa (29.94 inHg) 0.0mm (0.00 in.)
2:55 14.0°C (57.2 °F) 14.8 kmh (9.2 mph) NNW 69% 1015.0hPa (29.97 inHg) 0.0mm (0.00 in.)
1:55 13.7°C (56.7 °F) 11.1 kmh (6.9 mph) NNW 68% 1015.0hPa (29.97 inHg) 0.0mm (0.00 in.)
12:55 13.7°C (56.7 °F) 13.0 kmh (8.1 mph) NNW 66% 1015.0hPa (29.97 inHg) 0.0mm (0.00 in.)
11:55 14.4°C (57.9 °F) 13.0 kmh (8.1 mph) WNW 64% 1015.0hPa (29.97 inHg) 0.0mm (0.00 in.)
10:55 14.4°C (57.9 °F) 0.0 kmh (0.0 mph) WSW 64% 1015.0hPa (29.97 inHg) 0.0mm (0.00 in.)
9:55 14.4°C (57.9 °F) 0.0 kmh (0.0 mph) WNW 63% 1015.0hPa (29.97 inHg) 0.0mm (0.00 in.)
8:55 14.4°C (57.9 °F) 13.0 kmh (8.1 mph) W 62% 1015.0hPa (29.97 inHg) 0.0mm (0.00 in.)
7:55 14.4°C (57.9 °F) 18.5 kmh (11.5 mph) W 61% 1015.0hPa (29.97 inHg) 0.0mm (0.00 in.)
6:55 14.5°C (58.1 °F) 13.0 kmh (8.1 mph) WNW 59% 1014.0hPa (29.94 inHg) 0.0mm (0.00 in.)
5:55 14.7°C (58.5 °F) 11.1 kmh (6.9 mph) WNW 57% 1014.0hPa (29.94 inHg) 0.0mm (0.00 in.)
4:55 15.0°C (59.0 °F) 11.1 kmh (6.9 mph) WNW 55% 1014.0hPa (29.94 inHg) 0.0mm (0.00 in.)
3:55 16.4°C (61.5 °F) 13.0 kmh (8.1 mph) WNW 52% 1013.0hPa (29.91 inHg) 0.0mm (0.00 in.)
2:55 16.8°C (62.2 °F) 13.0 kmh (8.1 mph) W 52% 1013.0hPa (29.91 inHg) 0.0mm (0.00 in.)
1:55 16.9°C (62.4 °F) 22.2 kmh (13.8 mph) WNW 52% 1013.0hPa (29.91 inHg) 0.0mm (0.00 in.)
12:55 17.0°C (62.6 °F) 18.5 kmh (11.5 mph) W 52% 1013.0hPa (29.91 inHg) 0.0mm (0.00 in.)
11:48 16.9°C (62.4 °F) 20.4 kmh (12.7 mph) W 55% 1013.0hPa (29.91 inHg) 0.0mm (0.00 in.)
10:48 16.6°C (61.9 °F) 24.1 kmh (15.0 mph) W 57% 1014.0hPa (29.94 inHg) 0.0mm (0.00 in.)
9:48 15.7°C (60.3 °F) 20.4 kmh (12.7 mph) WNW 59% 1014.0hPa (29.94 inHg) 0.0mm (0.00 in.)
8:48 15.2°C (59.4 °F) 14.8 kmh (9.2 mph) WNW 59% 1013.0hPa (29.91 inHg) 0.0mm (0.00 in.)
7:48 14.2°C (57.6 °F) 16.7 kmh (10.4 mph) W 58% 1013.0hPa (29.91 inHg) 0.0mm (0.00 in.)
6:48 14.8°C (58.6 °F) 14.8 kmh (9.2 mph) WNW 55% 1013.0hPa (29.91 inHg) 0.0mm (0.00 in.)
5:48 14.7°C (58.5 °F) 14.8 kmh (9.2 mph) W 53% 1012.0hPa (29.88 inHg) 0.0mm (0.00 in.)

You need the latest version of Flash Player to view some of our content.


Why not download and install the latest version now?
It will only take you a moment and will ensure that you can view all the latest flash designed websites.

Translate this page

Animated Satellite

Click per aprire http://www.gozo.ws/Animation.php
copyright 2014 EUMETSAT

European Lightning Activity


Please click image for full size

Sponsored Links